Location: Cave
(41.8160°N, 12.9350°E)
Time: 19:11:20
(UTC+02:00)

ISS - Pass Details

Date: 10 July 2019
Orbit: 409 x 418 km, 51.6° (Epoch: 22 July)

Event Time Altitude Azimuth Distance (km) Brightness Sun altitude
Rises 04:49:25 0° 302° (WNW) 2,344 -0.1 -8.8°
Reaches altitude 10° 04:52:09 10° 327° (NNW) 1,480 -0.9 -8.4°
Maximum altitude 04:54:14 15° 6° (N) 1,192 -0.8 -8.1°
Drops below altitude 10° 04:56:18 10° 45° (NE) 1,478 0.7 -7.8°
Sets 04:59:01 0° 69° (ENE) 2,338 1.7 -7.4°
